This is the latest recevied weather packets stored in our database for station/object KD7KCN-5. If no packets are shown the sender has not sent any weather packets the latest 10 day(s).
| Time | Temp. | Humidity | Pressure | Rain* | Wind** | Luminosity | Snow |
|---|---|---|---|---|---|---|---|
| 1777077142 | 16.67° C | 18% | 1007.9 hPa | 0 mm | - | 118 W/m² | - |
| 1777076543 | 16.67° C | 16% | 1007.7 hPa | 0 mm | - | 139 W/m² | - |
| 1777075943 | 16.67° C | 16% | 1007.8 hPa | 0 mm | - | 202 W/m² | - |
| 1777075342 | 17.78° C | 16% | 1007.6 hPa | 0 mm | - | 387 W/m² | - |
| 1777074742 | 17.78° C | 16% | 1007.8 hPa | 0 mm | - | 464 W/m² | - |
| 1777074142 | 17.78° C | 16% | 1007.7 hPa | 0 mm | - | 503 W/m² | - |
| 1777073542 | 16.67° C | 17% | 1007.7 hPa | 0 mm | - | 582 W/m² | - |
| 1777072942 | 16.67° C | 17% | 1007.9 hPa | 0 mm | - | 529 W/m² | - |
| 1777072344 | 16.67° C | 16% | 1007.8 hPa | 0 mm | - | 269 W/m² | - |
| 1777071744 | 16.67° C | 17% | 1007.9 hPa | 0 mm | - | 285 W/m² | - |
| 1777071143 | 16.67° C | 17% | 1008 hPa | 0 mm | - | 529 W/m² | - |
| 1777070543 | 16.67° C | 16% | 1008.2 hPa | 0 mm | - | 276 W/m² | - |
| 1777069943 | 17.22° C | 16% | 1008.1 hPa | 0 mm | - | 341 W/m² | - |
| 1777069343 | 16.67° C | 16% | 1008.3 hPa | 0 mm | - | 404 W/m² | - |
| 1777068749 | 17.22° C | 16% | 1008.4 hPa | 0 mm | - | 230 W/m² | - |
| 1777068143 | 17.22° C | 15% | 1008.4 hPa | 0 mm | - | 689 W/m² | - |
| 1777067543 | 16.67° C | 16% | 1008.8 hPa | 0 mm | - | 508 W/m² | - |
| 1777066943 | 16.67° C | 18% | 1008.8 hPa | 0 mm | - | 424 W/m² | - |
| 1777066343 | 16.11° C | 18% | 1009 hPa | 0 mm | - | 418 W/m² | - |
| 1777065743 | 16.11° C | 17% | 1009 hPa | 0 mm | - | 311 W/m² | - |
| 1777065143 | 16.11° C | 18% | 1009 hPa | 0 mm | - | 432 W/m² | - |
| 1777064543 | 17.22° C | 16% | 1009 hPa | 0 mm | - | 517 W/m² | - |
| 1777063943 | 17.22° C | 18% | 1009.3 hPa | 0 mm | - | 810 W/m² | - |
| 1777063343 | 16.67° C | 17% | 1009.2 hPa | 0 mm | - | 506 W/m² | - |
| 1777062743 | 16.67° C | 18% | 1009.2 hPa | 0 mm | - | 564 W/m² | - |
* Rain latest hour (hover to see other rain measurements)
** Current wind speed in m/s (hover to see current wind gust speed)